STARLINK-1448, 45665

Orbit data source: Space-Track

STARLINK-1448, 45665 is a payload satellite owned by SpaceX/Seattle (US) in LEO that was launched on Thu, 04 Jun 2020 UTC via an FALCON 9 launch vehicle from the Air Force Eastern Test Range (AFETR). Payload-class satellites include a variety of spacecraft equipped with specific instruments for various scientific and technological missions. These include communications satellites like Starlink; space stations such as the ISS; scientific satellites like the Hubble; Earth observation satellites from companies like Planet Labs, Umbra, and HawkEye 360; GPS; miniature CubeSats for education and research; and military/defense satellites.

Loading next visibility...
Identifier
45665, 2020-035J
Orbit
LEO
Country
Flag of USUS
Related business
Manufacturer
SpaceX/Seattle
Mission
Operational Commercial Communications
Bus & Motor
STARLINK, Unknown motor
Mass
260 kg wet, ~248 kg dry
Launch date (UTC)
2020-06-04 (5 years ago)
Launch vehicle
FALCON 9
Launch site
Air Force Eastern Test Range (AFETR)
Object type
Payload
Rocket body
Debris
Shape & HBR
Box + 1 Pan, 10.1 m
Radar Cross Section
13.562 m², Large (>1 m²)

Expand to show TLE details & history
Last TLE update: 12 hours ago

TLE from 12 hours ago
0 STARLINK-1448
1 45665U 20035J   25287.92975735  .00001841  00000-0  14248-3 0  9993
2 45665  53.0561   0.9587 0001774  88.8574 271.2619 15.06394999296758
Epoch: 2025-10-14T22:18Z
TLE epoch observation values (Epoch: 2025-10-14T22:18:51.035Z)
Latitude
0.00006°
Longitude
2.53497°
Altitude
548.079 km
Speed
7.589 km/s
True Right ascension
00h 03m 50s
True Declination
0° 00' 00"
Sunlit
Object was in full shadow at epoch
Visualization orbit readout
Latitude
Unknown
Longitude
Unknown
Altitude
Unknown
Speed
Unknown
Apparent Right ascension
Unknown
Apparent Declination
Unknown
Sunlit
N/A
Visualization observer readout
Local Sidereal Time
04:40:56
Azimuth
Unknown
Elevation
Unknown
Doppler factor
Unknown
Orbital elements
Apogee altitude
548.726 km
Perigee altitude
546.269 km
Semi-major axis
6,925.634 km
Eccentricity
0.00018
Inclination
53.0561°
RAAN
0.9587°
Arg. of periapsis
88.8574°
True anomaly
271.24158°
Mean anomaly
271.2619°
Eccentric anomaly
271.25174°
Mean motion
3.76577 °/min
Orbital period
95.6 mins
BSTAR
0.00014248
Loading maneuver chart data...
Computing Atmospheric mass density...
Loading historical data...
Loading historical data...
Loading historical data...
Loading historical data...
Loading historical data...
Loading historical data...
Loading historical data...

Documentation

Showing up to 5 results
|